Regional Weather Roundup
Issued by NWS

Home | Current Version | Previous Version | Text Only | Print | Product List | Glossary On
Versions: 1 2 3 4 5 6 7 8 9 10 11 12 13 14 15 16 17 18 19 20 21 22 23 24 25 26 27 28 29 30 31 32 33 34 35 36 37 38 39 40 41 42 43 44 45 46 47 48 49 50
000
ASUS44 KMEG 220910
RWRTN
TENNESSEE HOURLY STATE WEATHER ROUNDUP
NATIONAL WEATHER SERVICE MEMPHIS TN
400 AM CDT FRI MAY 22 2015

TNZ002-004-019-021-049-052-054-088>092-221000-
WEST TENNESSEE

CITY           SKY/WX    TMP DP  RH WIND       PRES   REMARKS
MEMPHIS INTL   CLEAR     50  45  83 VRB3      30.22R
NWS MEMPHIS      N/A     45 N/A N/A MISG        N/A
JACKSON        PTCLDY    43  41  93 CALM      30.22S FOG
DYERSBURG      CLEAR     46  34  61 CALM      30.23F
PARIS          CLEAR     39  39 100 CALM      30.23R
LEXINGTON      CLEAR     41  39  93 CALM      30.21R
$$

TNZ008-025-027-028-033-062-065-066-221000-
NORTH MIDDLE TENNESSEE

CITY           SKY/WX    TMP DP  RH WIND       PRES   REMARKS
NASHVILLE      CLEAR     47  44  90 CALM      30.22R
CLARKSVILLE    CLEAR     43  42  97 CALM      30.23R
SMYRNA         CLEAR     45  44  96 CALM      30.22R
COOKEVILLE     CLEAR     45  45 100 CALM      30.19R
CROSSVILLE     CLEAR     45  42  89 NE3       30.19R
$$

TNZ061-075-076-078-094-096-097-221000-
SOUTH MIDDLE TENNESSEE

CITY           SKY/WX    TMP DP  RH WIND       PRES   REMARKS
FAYETTEVILLE   CLEAR    N/A N/A N/A MISG      30.19R
TULLAHOMA      CLEAR     45  43  93 CALM      30.20R
WINCHESTER     CLEAR     46  45  93 CALM      30.20R
MCMINNVILLE    CLEAR     43  43 100 CALM      30.20R
COLUMBIA       CLEAR     43  43 100 CALM      30.20R
SHELBYVILLE    CLEAR     45  45 100 CALM      30.21S
$$

TNZ017-018-042-046-047-221000-
NORTHEAST TENNESSEE

CITY           SKY/WX    TMP DP  RH WIND       PRES   REMARKS
TRI CITIES     CLEAR     48  42  80 CALM      30.17S
ELIZABETHTON   SUNNY     46  39  76 VRB6      30.17R
$$

TNZ012-013-036-069-073-074-221000-
CENTRAL EAST TENNESSEE

CITY           SKY/WX    TMP DP  RH WIND       PRES   REMARKS
KNOXVILLE      CLEAR     48  45  89 NE6       30.17R
OAK RIDGE      CLEAR     47  44  90 CALM      30.20R
GATLINBURG     PTSUNNY   48  45  87 CALM      30.18R
MORRISTOWN     SUNNY     46  45  93 CALM      30.19R
$$

TNZ083-085-099-221000-
SOUTHEAST TENNESSEE

CITY           SKY/WX    TMP DP  RH WIND       PRES   REMARKS
CHATTANOOGA    CLEAR     52  44  74 N12       30.16S
$$

SKY/WX REPORTED AS FAIR MEANS FEW OR NO CLOUDS BELOW
12 THOUSAND FEET.




USA.gov is the U.S. government's official web portal to all federal, state and local government web resources and services.